EST,Max TemperatureF,Mean TemperatureF,Min TemperatureF,Max Dew PointF,MeanDew PointF,Min DewpointF,Max Humidity, Mean Humidity, Min Humidity, Max Sea Level PressureIn, Mean Sea Level PressureIn, Min Sea Level PressureIn, Max VisibilityMiles, Mean VisibilityMiles, Min VisibilityMiles, Max Wind SpeedMPH, Mean Wind SpeedMPH, Max Gust SpeedMPH,PrecipitationIn, CloudCover, Events, WindDirDegrees
2014-1-1,54,51,47,50,46,41,89,83,77,30.36,30.28,30.15,10,9,5,7,3,12,0.33,7,Rain,30
2014-1-2,60,53,45,57,50,32,96,81,66,30.13,29.93,29.73,10,6,0,30,8,38,0.83,8,Fog-Rain,324
2014-1-3,45,38,30,25,16,11,58,43,27,30.43,30.26,29.95,10,10,10,33,14,44,0.00,2,,347
2014-1-4,51,42,32,38,28,15,70,59,47,30.42,30.34,30.20,10,10,10,13,8,17,0.00,7,,23
2014-1-5,61,52,44,54,46,37,94,80,65,30.18,30.05,29.88,10,9,2,9,5,,0.00,6,,356
2014-1-6,65,46,27,60,39,0,93,59,25,30.36,29.98,29.81,10,8,1,31,16,39,0.01,7,Rain,265
2014-1-7,31,25,19,12,3,0,55,42,28,30.57,30.50,30.38,10,10,10,22,10,29,0.00,5,,313
2014-1-8,50,37,24,30,21,9,74,53,32,30.60,30.52,30.48,10,10,10,13,5,16,0.00,2,,26
2014-1-9,63,51,38,54,43,28,93,68,42,30.47,30.41,30.34,10,9,2,14,8,20,0.02,7,Rain,45
2014-1-10,73,64,55,66,60,53,100,82,64,30.33,30.19,30.08,10,4,0,18,4,22,0.11,7,Fog-Rain,122
2014-1-11,75,68,60,67,63,53,100,90,79,30.08,29.91,29.74,10,5,0,21,9,29,0.17,8,Fog-Rain,198
2014-1-12,65,53,41,42,36,29,82,55,27,30.23,30.12,29.90,10,10,10,18,7,25,0.00,0,,292
2014-1-13,69,53,37,52,42,33,92,66,40,30.22,30.12,29.96,10,10,7,14,3,21,T,6,Fog-Rain,124
2014-1-14,67,55,43,59,52,41,97,71,44,30.03,29.92,29.86,10,9,1,18,6,23,0.63,6,Rain,262
2014-1-15,66,51,36,42,36,31,92,62,31,30.04,29.97,29.88,10,9,2,18,5,25,0.00,4,,267
2014-1-16,49,41,33,28,20,9,69,45,21,30.14,30.07,29.98,10,10,9,16,9,23,T,1,,287
2014-1-17,67,50,32,44,30,18,77,54,31,30.14,30.06,29.95,10,10,9,20,9,28,0.00,2,Rain,232
2014-1-18,51,43,34,22,17,14,52,38,24,30.22,30.14,30.03,10,10,10,22,11,28,0.00,0,,268
2014-1-19,64,49,34,39,30,20,67,51,34,30.13,30.08,30.02,10,10,10,22,9,26,0.00,2,,246
2014-1-20,68,52,36,33,29,24,76,48,19,30.10,30.03,29.95,10,10,10,21,8,26,0.00,1,,247
2014-1-21,69,55,41,50,37,22,89,61,32,29.92,29.80,29.62,10,10,10,31,12,43,T,1,,251
2014-1-22,45,37,29,23,15,7,59,40,20,30.19,30.07,29.91,10,10,10,21,10,25,0.00,0,,293
2014-1-23,48,38,28,18,14,10,63,43,23,30.40,30.31,30.19,10,10,10,14,6,18,0.00,5,,284
2014-1-24,42,34,25,17,7,0,63,40,17,30.58,30.48,30.36,10,10,10,16,8,22,0.00,3,,346
2014-1-25,59,41,23,43,29,16,81,57,33,30.31,30.08,29.87,10,10,10,32,12,44,0.00,2,,251
2014-1-26,58,46,34,41,33,26,92,61,30,30.08,30.03,29.98,10,10,8,12,5,17,T,5,Fog,227
2014-1-27,73,58,43,54,44,34,83,61,38,30.00,29.96,29.87,10,10,10,21,6,25,T,4,Rain,248
2014-1-28,57,46,34,54,36,29,93,75,57,30.17,30.10,29.99,10,9,4,18,8,23,0.15,8,Rain,14
2014-1-29,34,32,30,31,27,22,89,79,69,30.36,30.26,30.13,10,9,2,15,9,20,0.16,8,Rain,360
2014-1-30,39,34,29,25,20,17,69,55,40,30.36,30.30,30.20,10,10,10,15,9,18,0.00,8,,17
2014-1-31,61,49,37,43,33,23,92,71,49,30.27,30.21,30.16,10,10,10,10,2,18,0.00,5,,9